This demonstration page uses our WeatherBlox Daily Observations layout. Learn more.

Left ArrowRight Arrow

38.89511, -77.03637

Hourly Observations for May 17, 2017

Temp ( °F °C ) Dew Point ( °F °C ) Humidity (%) Winds ( mph kmh ) Pressure ( in mb ) Visibility ( mi km ) Precip ( " mm )
12:52 am 00:52 Clear 65 18.3 56 13.3 73 73 S 8 13 30.00 1016 10 16 0.00 0.00
1:52 am 01:52 Clear 64 17.8 56 13.3 75 75 S 6 9 29.99 1016 10 16 0.00 0.00
2:52 am 02:52 Clear 64 17.8 57 13.9 78 78 SSW 5 7 29.99 1016 10 16 0.00 0.00
3:52 am 03:52 Clear 63 17.2 56 13.3 78 78 S 6 9 29.99 1016 10 16 0.00 0.00
4:52 am 04:52 Partly Cloudy 63 17.2 56 13.3 78 78 S 5 7 30.00 1016 10 16 0.00 0.00
5:52 am 05:52 Clear 62 16.7 56 13.3 80 80 S 7 11 30.00 1016 10 16 0.00 0.00
6:52 am 06:52 Mostly Sunny 64 17.8 57 13.9 78 78 SSW 3 6 30.03 1017 10 16 0.00 0.00
7:52 am 07:52 Mostly Sunny 66 18.9 58 14.4 75 75 S 8 13 30.04 1017 10 16 0.00 0.00
8:52 am 08:52 Mostly Sunny 70 21.1 60 15.6 71 71 S 8 13 30.05 1018 10 16 0.00 0.00
9:52 am 09:52 Partly Cloudy 74 23.3 62 16.7 67 67 S 6 9 30.06 1018 10 16 0.00 0.00
10:52 am 10:52 Partly Cloudy 78 25.6 64 17.8 62 62 S 7 11 30.05 1018 10 16 0.00 0.00
11:52 am 11:52 Mostly Sunny 82 27.8 66 18.9 58 58 S 7 11 30.04 1017 10 16 0.00 0.00
12:52 pm 12:52 Mostly Sunny 85 29.4 66 18.9 53 53 S 10 17 30.02 1017 10 16 0.00 0.00
1:52 pm 13:52 Mostly Sunny 88 31.1 65 18.3 46 46 S 9 15 30.01 1016 10 16 0.00 0.00
2:52 pm 14:52 Mostly Sunny 90 32.2 66 18.9 45 45 S 10 17 29.98 1015 10 16 0.00 0.00
3:52 pm 15:52 Partly Cloudy 91 32.8 66 18.9 44 44 S 9 15 29.96 1015 10 16 0.00 0.00
4:52 pm 16:52 Partly Cloudy 89 31.7 64 17.8 43 43 S 12 19 29.95 1014 10 16 0.00 0.00
5:52 pm 17:52 Mostly Cloudy 86 30 66 18.9 51 51 S 12 19 29.94 1014 10 16 0.00 0.00
6:52 pm 18:52 Mostly Cloudy 83 28.3 64 17.8 53 53 S 13 20 29.94 1014 10 16 0.00 0.00
7:52 pm 19:52 Mostly Cloudy 81 27.2 64 17.8 57 57 S 15 24 29.95 1014 10 16 0.00 0.00
8:52 pm 20:52 Mostly Cloudy 80 26.7 64 17.8 58 58 S 9 15 29.96 1014 10 16 0.00 0.00
9:52 pm 21:52 Mostly Cloudy 78 25.6 64 17.8 62 62 S 10 17 29.97 1015 10 16 0.00 0.00
10:52 pm 22:52 Mostly Cloudy 76 24.4 64 17.8 67 67 S 9 15 29.97 1015 10 16 0.00 0.00
11:52 pm 23:52 Cloudy 76 24.4 64 17.8 67 67 S 10 17 29.97 1015 10 16 0.00 0.00

Powered by AerisWeather